Waarnemingen

Advertentie
Mijn weer
Don Benito, Spanje (8333): temperatuur & dauwpunt: 15.07.2018 09:00:00 - 21.07.2018 09:00:00 (CEST)Don Benito, Spanje (8333): windsnelheid & windstoten: 15.07.2018 09:00:00 - 21.07.2018 09:00:00 (CEST)Don Benito, Spanje (8333): windrichting: 15.07.2018 09:00:00 - 21.07.2018 09:00:00 (CEST)Don Benito, Spanje (8333): luchtdruk: 15.07.2018 09:00:00 - 21.07.2018 09:00:00 (CEST)Don Benito, Spanje (8333): zicht: 15.07.2018 09:00:00 - 21.07.2018 09:00:00 (CEST)Don Benito, Spanje (8333): Zonneschijnduur: 15.07.2018 09:00:00 - 21.07.2018 09:00:00 (CEST)Don Benito, Spanje (8333): neerslag: 15.07.2018 09:00:00 - 21.07.2018 09:00:00 (CEST)
Datum & Tijd tt [°C] td [°C] ff [km/u] ff [kn] fx [km/u] fx [kn] dd ppp [hPa] vv [km] sd [min] rr [mm]
21.07.2018 09:00:00 18,1 13,4 11 6 23 12 WZW 1015,4 20 8 0,0
21.07.2018 08:00:00 16,6 13,4 10 6 21 11 ZW 1015,3 20 0 -
21.07.2018 07:00:00 16,8 13,4 9 5 21 11 ZW 1015,1 19 0 0,0
21.07.2018 06:00:00 17,5 13,5 11 6 22 12 WZW 1014,7 20 0 0,0
21.07.2018 05:00:00 18,2 13,5 11 6 21 11 WZW 1014,4 20 0 0,0
21.07.2018 04:00:00 18,9 13,3 8 4 26 14 WZW 1014,6 20 0 0,0
21.07.2018 03:00:00 20,0 13,3 10 5 26 14 WZW 1014,7 20 0 0,0
21.07.2018 02:00:00 21,3 13,0 9 5 26 14 WZW 1014,9 20 0 -
21.07.2018 01:00:00 22,8 12,1 13 7 25 13 WZW 1014,6 20 0 0,0
21.07.2018 00:00:00 23,9 11,6 8 5 22 12 WZW 1014,1 20 0 0,0
20.07.2018 23:00:00 25,4 10,4 10 6 23 12 WZW 1013,1 20 0 0,0
20.07.2018 22:00:00 27,1 10,3 9 5 27 14 WZW 1012,1 20 0 0,0
20.07.2018 21:00:00 30,2 10,6 10 5 27 15 WZW 1011,6 20 48 0,0
20.07.2018 20:00:00 32,3 10,9 12 6 30 16 WZW 1011,2 20 60 -
20.07.2018 19:00:00 33,5 10,8 10 5 28 15 WZW 1011,3 20 60 0,0
20.07.2018 18:00:00 33,1 11,6 13 7 26 14 WZW 1011,6 20 60 0,0
20.07.2018 17:00:00 32,2 11,9 12 6 29 16 W 1012,4 20 60 0,0
20.07.2018 16:00:00 31,0 11,3 14 8 32 18 WZW 1013,1 20 60 0,0
20.07.2018 15:00:00 30,1 12,1 12 6 24 13 WZW 1013,8 20 60 0,0
20.07.2018 14:00:00 28,1 13,7 8 4 24 13 WZW 1014,7 20 60 -
20.07.2018 13:00:00 25,8 13,9 8 4 21 12 ZW 1015,2 20 60 0,0
20.07.2018 12:00:00 24,2 14,9 9 5 25 14 WZW 1015,8 20 60 0,0
20.07.2018 11:00:00 22,0 14,9 13 7 26 14 WZW 1016,0 17 60 0,0
20.07.2018 10:00:00 20,0 15,3 11 6 26 14 WZW 1016,2 16 21 0,0
20.07.2018 09:00:00 18,0 15,3 10 6 19 11 WZW 1016,1 11 0 0,0
20.07.2018 08:00:00 16,7 14,9 9 5 16 8 ZW 1015,9 9 0 -
20.07.2018 07:00:00 16,9 15,1 9 5 18 10 ZW 1015,4 8 0 0,0
20.07.2018 06:00:00 17,2 15,0 9 5 19 10 WZW 1015,4 9 0 0,0
20.07.2018 05:00:00 18,1 14,4 9 5 21 12 WZW 1015,4 18 0 0,0
20.07.2018 04:00:00 18,8 14,0 11 6 23 13 WZW 1015,2 19 0 0,0
20.07.2018 03:00:00 19,8 13,5 11 6 24 13 WZW 1015,3 20 0 0,0
20.07.2018 02:00:00 21,1 12,0 9 5 23 12 WZW 1015,3 20 0 -
20.07.2018 01:00:00 21,4 10,5 8 5 16 9 ZW 1015,2 20 0 0,0
20.07.2018 00:00:00 22,8 9,9 6 3 15 8 W 1014,6 20 0 0,0
19.07.2018 23:00:00 24,5 8,4 6 3 18 10 WZW 1014,3 18 0 0,0
19.07.2018 22:00:00 26,4 7,8 9 5 18 10 W 1013,4 20 0 0,0
19.07.2018 21:00:00 29,8 8,8 6 4 18 10 WZW 1012,7 20 48 0,0
19.07.2018 20:00:00 31,3 7,0 9 5 28 15 W 1012,5 20 60 -
19.07.2018 19:00:00 31,3 5,6 11 6 30 16 W 1013,0 20 60 0,0
19.07.2018 18:00:00 32,0 2,1 10 6 27 15 W 1013,0 20 60 0,0
19.07.2018 17:00:00 30,7 7,8 12 7 29 16 WNW 1013,6 20 60 0,0
19.07.2018 16:00:00 30,6 6,4 11 6 27 15 W 1014,1 20 60 0,0
19.07.2018 15:00:00 30,2 11,7 9 5 24 13 W 1014,4 20 60 0,0
19.07.2018 14:00:00 27,9 11,9 9 5 21 11 W 1015,1 20 60 -
19.07.2018 13:00:00 26,4 12,8 8 4 21 11 W 1015,7 20 60 0,0
19.07.2018 12:00:00 23,9 12,2 8 5 16 9 W 1016,0 20 60 0,0
19.07.2018 11:00:00 22,1 13,2 8 4 18 10 WZW 1016,2 20 60 0,0
19.07.2018 10:00:00 19,4 14,0 8 4 17 9 W 1016,5 18 60 0,0
19.07.2018 09:00:00 17,2 13,9 6 4 18 10 W 1016,7 17 7 0,0
19.07.2018 08:00:00 15,9 13,2 9 5 18 10 WZW 1016,6 15 0 -
19.07.2018 07:00:00 16,3 13,3 9 5 16 9 WZW 1015,9 17 0 0,0
19.07.2018 06:00:00 17,1 13,3 9 5 18 10 WZW 1015,8 20 0 0,0
19.07.2018 05:00:00 18,2 13,1 9 5 18 10 WZW 1015,7 20 0 0,0
19.07.2018 04:00:00 18,9 13,1 8 4 16 8 WZW 1015,5 20 0 0,0
19.07.2018 03:00:00 20,1 12,8 8 4 16 8 ZW 1015,2 20 0 0,0
19.07.2018 02:00:00 21,0 11,6 8 4 14 8 ZZW 1014,8 20 0 -
19.07.2018 01:00:00 21,9 10,0 7 4 15 8 WZW 1014,5 20 0 0,0
19.07.2018 00:00:00 23,0 9,4 7 4 11 6 ZW 1014,1 20 0 0,0
18.07.2018 23:00:00 24,9 8,8 4 2 11 6 ZW 1013,5 20 0 0,0
18.07.2018 22:00:00 27,2 8,1 3 1 14 8 WZW 1012,7 20 0 0,0
18.07.2018 21:00:00 30,2 8,0 5 3 24 13 W 1012,1 20 50 0,0
18.07.2018 20:00:00 32,0 6,2 9 5 27 15 W 1011,8 20 60 -
18.07.2018 19:00:00 32,1 7,0 13 7 29 16 WNW 1011,8 20 60 0,0
18.07.2018 18:00:00 32,8 9,6 10 5 27 15 WNW 1012,0 20 60 0,0
18.07.2018 17:00:00 32,6 10,6 11 6 27 14 W 1012,4 20 60 0,0
18.07.2018 16:00:00 31,3 10,6 13 7 28 15 WNW 1013,0 20 60 0,0
18.07.2018 15:00:00 30,0 11,0 8 5 24 13 W 1013,6 20 60 0,0
18.07.2018 14:00:00 28,4 13,5 9 5 22 12 W 1014,1 20 60 -
18.07.2018 13:00:00 27,1 14,8 10 5 21 11 W 1014,5 20 60 0,0
18.07.2018 12:00:00 25,2 15,3 7 4 16 8 W 1014,8 20 60 0,0
18.07.2018 11:00:00 23,4 15,7 5 3 16 9 WNW 1015,0 14 60 0,0
18.07.2018 10:00:00 21,3 15,2 6 3 16 9 W 1015,1 19 60 0,0
18.07.2018 09:00:00 19,5 15,0 3 2 9 5 W 1014,9 16 7 0,0
18.07.2018 08:00:00 18,3 14,6 4 2 12 7 W 1014,4 16 0 -
18.07.2018 07:00:00 18,9 14,6 7 4 14 7 WZW 1013,8 20 0 0,0
18.07.2018 06:00:00 20,1 14,4 8 5 22 12 WZW 1013,2 20 0 0,0
18.07.2018 05:00:00 21,3 14,4 9 5 19 11 WZW 1012,8 20 0 0,0
18.07.2018 04:00:00 22,3 13,9 8 4 20 11 WZW 1012,4 20 0 0,0
18.07.2018 03:00:00 23,2 14,7 9 5 21 11 WZW 1012,2 20 0 0,0
18.07.2018 02:00:00 24,0 15,0 6 4 25 13 WZW 1011,6 20 0 -
18.07.2018 01:00:00 25,7 8,7 12 6 24 13 WZW 1011,0 20 0 0,0
18.07.2018 00:00:00 26,7 8,7 6 3 11 6 ZZW 1010,4 20 0 0,0
17.07.2018 23:00:00 28,1 10,3 4 2 9 5 ZZW 1010,1 20 0 0,0
17.07.2018 22:00:00 30,8 11,7 4 2 6 4 ZZW 1009,4 12 0 0,0
17.07.2018 21:00:00 33,8 9,8 2 1 16 8 N 1009,0 20 50 0,0
17.07.2018 20:00:00 34,1 8,0 6 3 15 8 N 1009,2 20 60 -
17.07.2018 19:00:00 34,4 8,3 6 3 18 10 N 1009,6 20 60 0,0
17.07.2018 18:00:00 34,3 9,6 8 4 21 11 NNW 1010,5 20 60 0,0
17.07.2018 17:00:00 32,8 7,6 11 6 23 12 N 1011,5 20 60 0,0
17.07.2018 16:00:00 32,5 9,3 10 5 23 12 NNW 1012,1 20 60 0,0
17.07.2018 15:00:00 32,8 9,6 9 5 19 10 NNW 1012,7 20 60 0,0
17.07.2018 14:00:00 31,2 11,6 6 4 17 9 NNW 1013,8 20 60 -
17.07.2018 13:00:00 28,8 13,5 6 3 13 7 NNW 1014,5 20 60 0,0
17.07.2018 12:00:00 27,6 13,6 2 1 10 5 N 1015,0 20 60 0,0
17.07.2018 11:00:00 24,6 15,0 4 2 10 5 NNW 1015,5 20 60 0,0
17.07.2018 10:00:00 22,2 14,3 6 3 13 7 WZW 1016,1 20 60 0,0
17.07.2018 09:00:00 19,5 13,9 6 4 13 7 WZW 1016,3 20 7 0,0
17.07.2018 08:00:00 17,6 13,8 4 2 11 6 ZW 1016,4 18 0 -
17.07.2018 07:00:00 17,8 13,8 5 3 10 5 ZW 1016,3 20 0 0,0
17.07.2018 06:00:00 18,5 13,9 6 3 13 7 ZW 1016,2 20 0 0,0
17.07.2018 05:00:00 19,4 13,8 7 4 16 9 WZW 1016,1 20 0 0,0
17.07.2018 04:00:00 19,8 13,3 7 4 15 8 ZW 1016,4 20 0 0,0
17.07.2018 03:00:00 20,5 13,3 8 5 13 7 ZW 1016,4 16 0 0,0
17.07.2018 02:00:00 21,8 11,8 9 5 14 8 ZZW 1016,5 20 0 -
17.07.2018 01:00:00 23,1 10,9 5 3 14 7 ZW 1016,6 20 0 0,0
17.07.2018 00:00:00 24,4 10,3 5 3 9 5 ZW 1016,4 20 0 0,0
16.07.2018 23:00:00 25,4 10,0 2 1 9 5 WZW 1016,2 20 0 0,0
16.07.2018 22:00:00 27,5 9,8 3 2 10 6 WZW 1015,8 20 0 0,0
16.07.2018 21:00:00 30,7 10,6 4 2 15 8 WZW 1015,5 20 50 0,0
16.07.2018 20:00:00 31,7 9,3 7 4 16 8 W 1015,3 20 60 -
16.07.2018 19:00:00 32,2 9,0 6 3 18 10 W 1015,6 20 60 0,0
16.07.2018 18:00:00 31,4 9,6 8 4 18 10 WZW 1016,1 20 60 0,0
16.07.2018 17:00:00 30,3 10,3 6 3 20 11 W 1016,8 20 60 0,0
16.07.2018 16:00:00 29,5 10,6 7 4 21 12 WZW 1017,4 20 60 0,0
16.07.2018 15:00:00 28,4 10,5 6 3 19 10 WZW 1018,3 20 60 0,0
16.07.2018 14:00:00 27,5 10,3 7 4 22 12 ZW 1019,1 20 60 -
16.07.2018 13:00:00 24,6 13,8 7 4 26 14 W 1020,0 20 60 0,0
16.07.2018 12:00:00 22,5 14,3 8 5 23 12 WZW 1020,3 20 60 0,0
16.07.2018 11:00:00 20,2 14,5 9 5 22 12 WZW 1020,4 20 38 0,0
16.07.2018 10:00:00 18,7 14,4 12 6 24 13 WZW 1020,6 16 17 0,0
16.07.2018 09:00:00 17,7 15,0 10 5 23 13 WZW 1020,6 14 0 0,0
16.07.2018 08:00:00 17,0 15,2 10 5 20 11 WZW 1020,4 13 0 -
16.07.2018 07:00:00 16,3 14,6 8 4 17 9 WZW 1019,8 11 0 0,0
16.07.2018 06:00:00 16,7 14,7 8 4 16 9 WZW 1019,5 16 0 0,0
16.07.2018 05:00:00 17,1 14,7 6 3 15 8 WZW 1019,6 19 0 0,0
16.07.2018 04:00:00 17,7 14,6 6 3 18 10 ZW 1019,7 20 0 0,0
16.07.2018 03:00:00 18,5 14,4 8 5 21 12 WZW 1019,6 20 0 0,0
16.07.2018 02:00:00 18,9 14,3 10 5 16 9 WZW 1019,8 20 0 -
16.07.2018 01:00:00 19,4 13,8 5 3 19 11 W 1019,5 20 0 0,0
16.07.2018 00:00:00 19,7 13,4 9 5 16 9 WZW 1019,1 20 0 0,0
15.07.2018 23:00:00 20,1 12,6 6 3 14 8 ZW 1018,3 20 0 0,0
15.07.2018 22:00:00 21,7 11,4 7 4 54 29 W 1017,2 20 0 0,0
15.07.2018 21:00:00 25,5 8,0 8 5 24 13 W 1016,3 20 12 0,0
15.07.2018 20:00:00 28,2 8,0 8 5 24 13 W 1015,6 20 58 -
15.07.2018 19:00:00 28,6 7,7 11 6 29 16 W 1015,9 20 55 0,0
15.07.2018 18:00:00 28,1 7,8 9 5 32 17 W 1016,4 20 57 0,0
15.07.2018 17:00:00 26,5 8,9 12 7 31 17 WNW 1016,8 20 55 0,0
15.07.2018 16:00:00 26,2 9,6 12 7 30 16 WNW 1017,2 20 56 0,0
15.07.2018 15:00:00 26,0 9,3 11 6 28 15 W 1017,7 20 56 0,0
15.07.2018 14:00:00 25,0 11,9 9 5 26 14 W 1018,3 20 60 -
15.07.2018 13:00:00 23,6 12,8 11 6 26 14 W 1018,9 20 26 0,0
15.07.2018 12:00:00 22,3 12,8 8 4 24 13 W 1019,1 20 40 0,0
15.07.2018 11:00:00 20,2 13,0 8 4 19 11 W 1019,4 20 26 0,0
15.07.2018 10:00:00 18,9 12,8 7 4 19 10 W 1019,5 20 0 0,0
15.07.2018 09:00:00 18,0 13,9 6 4 18 10 WZW 1019,3 19 0 0,0

tt = temperatuur
td = dauwpunt
ff = windsnelheid
fx = windstoten
dd = windrichting
ppp = luchtdruk
vv = zicht
sd = Zonneschijnduur
rr = neerslag

Weerstations in de omgeving